Погода в Гриноке

Великобритания     55°56′45″N   4°45′37″W
В апреле 2022 года жителям России запретили посещать сайт meteo.paraplan.net по решению Генеральной прокуратуры. Аудитория сайта уменьшилась в 10 раз. Владельцы сайта не видят смысла в поддержке погодного сервера в таких условиях. Сайт будет закрыт в октябре.
темп.,
°C
ветер,
м/с
пор.,
м/с
влажн.,
%
обл.,
%
осадки,
мм/ч
давл.,
гПа
погр.,
м
30 сентября, пт
пт3001:00+10ю3992100 0.1 1005435
04:00+11ю51293100 0.3 10021040
07:00+10ю81693100 2.3 9961223
10:00+10ю102296100 16.6 9871294
13:00+12зюз91493100 37.4 9841093
16:00+11з7148869 0.9 9871344
19:00+9зюз5129349 1.3 989745
22:00+9зюз5129118 0.7 991850
1 октября, сб
сб101:00+8зюз4129237 1.0 992790
04:00+8зюз4129396 0.3 994671
07:00+9зюз6139228 1.6 995934
10:00+10зюз6129034 0.7 9961164
13:00+11зюз714849 1.7 9981419
16:00+11зюз714857 1.4 10001499
19:00+9з61390100 2.0 10021003
22:00+9зюз5139061 0.1 1005952
2 октября, вс
вс201:00+9з5128868 0.3 10081022
04:00+9з5118848 0.2 1010885
07:00+8зюз399417 0.3 1012404
10:00+11зюз388583 0.1 1014822
13:00+12з477512 0.1 1015895
16:00+13з476946 0.0 10171076
19:00+9зюз11905 0.0 101911
22:00+7з11945 0.0 102010
3 октября, пн
пн301:00+7з119540 0.0 102112
04:00+7з119693 0.0 102110
07:00+6ю009597 0.0 102110
10:00+9юв1190100 0.0 1021138
13:00+12ю3880100 0.0 1019759
16:00+10ююв3993100 0.7 1017687
19:00+10ю31190100 0.7 1015668
22:00+12ю61496100 0.0 1013800
4 октября, вт
вт401:00+12ю51497100 0.1 1011756
04:00+13ююз51298100 0.0 1008890
07:00+13ю61295100 0.3 10051083
10:00+14ю71593100 0.2 10031384
13:00+14ю91693100 0.8 10001142
16:00+13ююз81796100 1.9 9981291
19:00+10зюз71687100 2.7 10021280
22:00+9зюз71385100 0.1 10051027